Terug naar catalogus

STARLINK-5288

ActiefCommunicatieVLEO
NORAD 55307·PAYLOAD·🇺🇸 United States

Gelanceerd Jan 19, 2023 vanaf Vandenberg Space Force Base

Loading…

Volgende Passages (komende 24 uur)

TLE

VersSource: CelesTrak SupGP

Epoch: Sep 14, 2026, 21:38 UTC

1 55307C 23010AQ  26257.90187500  .00047960  00000+0  40186-2 0  2571
2 55307  69.9989 247.5405 0003862 266.6921 339.6455 14.98311036    12

Volg STARLINK-5288 in realtime met AllMySat

Download on the App Store